Wind_Speed
44 42 41 40 38 36 33 31 29 27 25 24 24 23 24 24 24 22 20 20 21 20 19 19 20 20 19 16 13 11 8 6 3 1 2 4 4 4 5 5 4 4 5 4 4
46 46 44 42 40 38 35 33 32 29 27 26 26 26 26 25 23 21 20 21 20 20 21 22 23 23 21 18 16 13 11 8 6 5 4 5 6 6 6 6 6 6 6 7 6
47 48 47 46 43 41 39 36 34 32 30 28 28 28 27 25 23 23 22 21 21 21 23 23 24 24 22 20 19 16 13 11 10 9 8 8 8 8 7 8 8 8 7 8 8
49 49 49 48 47 44 42 39 37 35 32 30 30 28 27 26 24 23 23 23 23 24 25 25 26 25 23 21 21 18 15 14 13 12 12 11 10 9 9 9 10 10 8 9 10
46 50 50 50 49 47 44 42 40 37 35 33 32 31 29 27 25 24 24 24 25 27 27 27 27 26 23 23 23 20 18 16 15 15 14 14 13 11 12 10 10 11 11 11 11
41 45 51 51 50 50 48 45 43 40 38 38 35 32 31 29 27 26 25 25 27 28 28 28 29 27 25 25 24 22 19 18 17 16 14 15 12 14 15 11 12 11 12 11 12
37 42 46 49 51 51 50 47 46 42 40 39 39 37 35 32 30 29 28 27 28 30 29 29 29 28 26 26 24 22 20 18 18 17 14 13 12 18 12 11 10 10 11 13 15
34 37 43 46 49 50 51 50 48 46 43 41 40 41 39 36 34 33 31 30 31 32 31 31 29 29 27 26 24 23 21 20 18 16 16 14 12 14 13 11 10 10 11 13 16
38 41 39 42 46 49 50 50 51 49 46 43 42 42 43 40 38 36 34 34 35 34 33 32 31 30 29 27 26 25 22 20 19 19 18 17 13 18 16 14 14 13 14 15 17
43 45 42 40 43 46 48 50 50 50 49 47 45 44 45 43 40 38 37 37 37 37 36 35 34 32 30 29 30 27 23 22 22 22 22 20 17 19 19 16 16 16 17 17 20
42 43 42 41 40 43 44 47 50 50 51 49 47 45 44 45 43 42 41 40 41 41 39 38 38 33 31 36 31 29 27 25 26 27 28 26 22 23 24 18 19 20 18 21 24
45 47 45 42 42 42 41 43 46 50 50 50 50 49 47 45 45 44 43 43 43 43 43 42 40 35 38 36 34 32 31 30 30 32 33 30 27 26 27 26 24 23 23 26 28
43 46 49 47 45 42 41 41 42 45 50 50 51 50 50 49 48 47 46 45 46 47 47 45 43 40 40 39 37 36 36 35 36 35 36 35 37 29 28 30 30 28 29 29 32
49 43 45 51 54 48 47 45 44 44 48 47 49 49 50 49 51 50 50 49 49 49 49 49 47 43 41 41 41 41 40 40 39 39 38 39 49 32 28 31 31 31 33 34 33
48 48 47 46 47 41 50 54 51 42 50 49 48 50 49 50 50 48 50 50 50 49 50 49 47 46 44 42 43 44 42 41 41 40 40 44 47 40 32 31 31 33 34 36 38
52 48 49 51 50 46 50 39 40 54 58 55 51 47 48 47 50 49 48 51 51 51 52 53 52 48 47 45 44 45 44 43 43 41 44 47 46 44 39 36 35 35 37 39 39
55 52 51 48 49 52 45 42 45 50 58 55 56 53 47 49 49 49 48 49 50 51 53 53 53 51 49 48 46 45 45 43 44 46 47 49 50 49 43 47 40 41 41 41 39
57 56 55 54 56 53 51 51 51 42 50 39 53 55 59 54 47 50 50 49 50 52 53 53 55 54 52 49 47 45 46 48 51 50 48 50 56 51 44 45 48 51 46 46 45
50 54 58 56 56 58 58 57 52 54 53 50 49 49 43 55 62 56 51 50 50 50 51 53 54 53 51 50 50 50 50 48 49 50 54 55 52 50 48 49 50 51 57 52 51
42 45 49 55 58 58 59 63 57 55 55 55 49 53 53 52 50 54 55 58 52 52 52 54 56 55 54 53 53 53 52 52 53 53 55 55 54 53 53 56 56 57 56 56 49
42 42 44 47 53 58 61 67 61 62 60 59 62 57 52 46 45 55 50 49 57 58 53 53 56 58 58 58 56 54 55 56 56 56 56 56 55 55 58 60 60 62 58 49 39
45 46 47 49 53 57 62 63 64 62 63 63 64 61 64 64 55 50 50 41 43 50 56 53 56 59 57 55 58 59 59 61 63 62 61 60 61 58 60 63 62 60 61 49 42
52 50 52 54 55 55 55 55 59 64 66 62 65 66 66 68 68 63 52 45 46 47 45 45 48 47 57 64 64 62 58 56 56 57 59 61 65 62 65 65 60 55 53 50 48
60 58 57 58 55 55 55 58 58 60 62 67 69 66 69 73 70 68 64 63 59 58 59 60 61 57 56 54 58 59 59 59 57 58 70 66 70 66 63 58 51 50 51 52 53
66 64 63 61 58 58 60 61 59 60 61 61 67 71 71 70 69 69 72 69 70 65 64 66 63 63 58 56 54 56 55 54 55 58 56 62 56 66 52 51 53 53 50 55 54
70 68 67 66 63 64 64 61 62 63 62 63 64 62 65 69 72 70 65 65 71 68 67 65 65 65 69 62 63 65 63 59 60 58 58 58 59 49 45 48 49 52 54 52 54
71 71 70 68 67 68 67 64 64 66 65 66 66 67 68 66 67 71 73 74 77 68 63 62 63 56 69 71 72 72 66 63 62 60 61 61 53 45 48 49 50 56 58 57 57
Wind_Direction
212 212 210 209 210 210 213 215 216 216 217 214 212 211 212 213 213 212 212 215 217 212 211 213 213 216 216 208 202 200 188 203 197 196 333 342 345 331 337 344 323 298 283 288 270
215 214 214 214 215 216 218 218 219 220 220 218 216 215 215 216 216 215 216 218 216 215 213 212 212 215 217 215 213 211 208 220 238 250 273 302 323 315 313 313 318 315 305 291 297
218 217 217 217 219 221 222 222 224 223 222 220 219 218 220 219 218 219 219 223 221 217 215 213 215 216 217 220 223 220 218 227 244 258 270 285 295 294 290 295 312 315 303 291 291
220 220 219 220 221 222 224 225 226 227 226 223 222 223 223 224 221 222 223 226 224 221 217 214 214 217 218 222 230 229 228 235 245 255 264 273 280 282 275 280 299 314 306 289 286
222 224 224 222 222 224 225 225 227 230 229 228 224 224 225 225 225 226 227 227 223 221 218 215 216 218 220 225 232 233 236 243 249 254 262 270 275 277 273 279 291 295 296 299 290
222 224 224 226 226 225 225 227 228 231 231 232 230 227 227 227 227 228 228 226 222 220 220 219 220 221 224 230 234 237 241 244 251 258 263 269 273 271 267 278 282 290 299 305 305
225 224 225 225 228 228 229 229 230 231 233 232 231 229 228 227 229 228 229 226 223 224 222 223 223 224 226 231 235 240 244 247 251 256 257 261 267 262 268 267 275 291 303 307 306
223 227 226 227 228 229 230 230 232 234 233 233 232 231 230 228 229 228 228 228 226 226 225 226 225 226 228 232 234 238 243 245 249 251 250 256 260 261 262 266 276 288 301 305 307
232 226 227 228 229 230 231 231 230 233 236 235 234 232 231 229 228 230 228 228 229 227 224 225 226 230 232 234 236 238 239 244 248 252 254 255 253 265 268 272 276 284 292 301 307
230 228 225 227 231 230 231 233 233 232 233 236 235 234 233 232 230 231 231 229 229 229 227 228 230 231 234 239 237 239 242 244 250 253 258 260 261 269 275 281 281 279 286 298 301
229 222 224 226 232 232 230 230 233 234 233 234 236 236 234 234 233 232 233 232 229 229 230 231 233 234 236 238 240 241 242 245 251 257 258 264 264 270 277 280 280 282 284 291 297
226 227 221 223 227 232 235 234 235 235 235 235 234 235 236 236 236 235 235 235 233 232 232 233 235 235 238 241 243 243 246 249 251 255 261 263 264 269 275 279 281 282 286 290 300
239 238 230 225 226 232 234 239 239 240 237 236 236 235 236 237 237 237 237 237 236 235 234 235 237 238 240 244 246 248 250 252 254 257 263 267 265 263 272 277 280 286 286 290 297
228 227 234 232 228 225 233 236 236 240 243 238 237 236 237 238 239 240 240 238 237 236 237 236 238 240 244 247 250 250 253 255 258 261 263 267 273 266 270 272 276 281 285 289 293
233 230 228 226 231 231 235 235 233 235 242 241 234 240 239 241 240 241 242 242 241 240 239 239 240 242 241 245 249 252 254 257 260 262 264 265 272 276 271 271 274 277 282 286 292
234 238 238 225 225 228 222 220 232 239 238 242 238 239 241 240 241 242 240 242 244 244 243 242 242 242 244 246 249 252 255 256 258 261 263 268 272 273 281 282 283 286 288 288 295
234 235 235 242 241 233 236 239 239 237 238 242 243 241 241 241 241 243 241 241 244 246 245 246 247 247 246 247 248 251 255 259 259 258 263 267 270 275 283 290 291 288 289 291 297
236 235 234 232 235 238 239 236 238 234 232 240 242 246 245 245 241 241 243 243 243 244 247 246 245 247 248 249 252 250 250 253 259 262 264 264 269 278 284 285 289 292 293 296 296
237 236 238 238 236 235 234 234 237 232 236 234 239 237 240 243 239 238 239 244 244 245 247 250 249 249 250 251 250 252 253 255 258 260 262 266 272 277 282 285 285 288 295 298 298
239 238 237 238 238 236 236 236 238 242 239 236 233 237 247 249 241 242 244 241 243 243 246 247 249 246 246 247 249 252 253 253 255 258 262 268 271 276 280 281 285 289 292 299 300
241 240 238 239 239 238 235 238 236 236 237 239 238 240 237 243 242 244 243 242 241 240 244 245 248 247 247 249 251 249 252 254 257 256 259 264 266 273 276 279 284 287 291 295 290
243 243 241 241 242 242 241 240 239 239 238 237 240 242 241 242 241 234 233 236 244 245 243 246 250 248 250 247 247 249 251 251 252 256 260 264 267 270 275 278 283 286 288 288 278
243 245 244 243 243 245 244 243 243 238 239 239 239 238 240 244 247 244 231 238 250 246 249 250 247 249 250 251 251 254 257 260 262 262 263 267 269 273 276 280 281 280 278 275 273
245 245 246 247 246 245 246 243 243 242 242 241 239 240 239 240 243 246 245 248 248 247 247 251 252 253 253 256 255 254 255 256 256 255 267 265 271 269 274 277 276 273 270 271 274
246 246 247 247 248 247 245 245 244 245 245 245 244 241 241 242 244 243 245 247 250 249 247 250 254 255 256 256 254 252 251 248 250 254 253 266 262 269 266 271 272 269 268 268 271
250 248 245 247 246 246 246 246 246 247 246 246 247 246 245 245 245 243 245 244 247 247 249 248 248 252 255 254 253 256 255 255 253 251 254 259 261 270 272 268 264 263 267 268 269
248 249 250 247 245 245 246 246 246 247 246 246 247 246 247 249 247 244 242 242 247 246 245 248 252 259 257 254 253 251 254 256 261 260 261 260 266 261 259 262 269 264 263 266 269
Height
5782 5787 5792 5797 5802 5807 5811 5815 5819 5822 5825 5827 5830 5833 5837 5840 5844 5845 5847 5850 5853 5854 5856 5859 5863 5866 5870 5871 5873 5874 5875 5875 5877 5878 5879 5880 5881 5881 5881 5881 5881 5881 5880 5880 5880
5775 5781 5787 5792 5797 5802 5807 5810 5815 5819 5821 5824 5828 5831 5834 5837 5839 5841 5844 5847 5849 5851 5854 5857 5860 5864 5866 5869 5871 5873 5873 5874 5875 5877 5878 5879 5879 5879 5880 5879 5880 5879 5879 5879 5879
5769 5774 5780 5785 5790 5796 5801 5805 5809 5813 5817 5820 5824 5827 5830 5833 5835 5838 5840 5844 5846 5848 5851 5854 5858 5861 5863 5865 5868 5870 5871 5872 5874 5875 5876 5877 5878 5878 5878 5878 5878 5878 5878 5878 5878
5761 5767 5773 5778 5784 5789 5794 5799 5804 5808 5812 5815 5819 5822 5825 5829 5832 5834 5837 5840 5842 5846 5848 5851 5855 5858 5860 5862 5865 5867 5868 5870 5872 5873 5874 5875 5876 5876 5876 5877 5876 5876 5876 5876 5876
5754 5761 5766 5771 5776 5782 5787 5792 5798 5802 5806 5811 5814 5817 5821 5824 5827 5830 5833 5837 5839 5843 5845 5848 5851 5854 5856 5859 5862 5864 5865 5867 5869 5870 5872 5873 5873 5873 5872 5874 5874 5874 5874 5873 5874
5745 5752 5759 5765 5770 5776 5781 5786 5791 5795 5799 5805 5808 5811 5816 5820 5822 5826 5829 5832 5836 5839 5842 5845 5848 5851 5853 5856 5859 5860 5861 5863 5865 5867 5869 5869 5870 5869 5869 5870 5871 5871 5871 5872 5871
5739 5743 5750 5756 5763 5769 5774 5779 5784 5787 5792 5797 5802 5806 5810 5814 5818 5821 5825 5828 5831 5836 5838 5842 5844 5847 5850 5852 5855 5857 5858 5859 5861 5863 5865 5866 5867 5865 5867 5867 5868 5869 5869 5869 5868
5732 5737 5741 5747 5755 5761 5766 5771 5776 5781 5786 5790 5794 5799 5804 5807 5812 5816 5819 5823 5827 5830 5833 5837 5840 5843 5845 5849 5851 5852 5854 5855 5857 5859 5860 5862 5863 5862 5863 5864 5864 5865 5865 5865 5865
5725 5730 5734 5739 5745 5752 5758 5763 5768 5774 5779 5783 5787 5792 5797 5801 5806 5810 5813 5817 5821 5825 5828 5831 5834 5838 5842 5845 5846 5847 5849 5851 5853 5854 5855 5857 5859 5857 5859 5861 5861 5861 5861 5861 5861
5717 5721 5726 5732 5738 5743 5749 5755 5760 5765 5770 5776 5780 5786 5791 5795 5799 5803 5806 5811 5815 5819 5822 5825 5829 5833 5837 5840 5840 5843 5845 5846 5847 5849 5849 5852 5855 5854 5855 5857 5857 5857 5857 5857 5856
5708 5713 5720 5725 5731 5735 5740 5746 5753 5758 5761 5767 5773 5778 5782 5787 5791 5795 5800 5803 5807 5811 5815 5819 5823 5828 5831 5830 5835 5838 5839 5841 5842 5842 5843 5845 5849 5850 5849 5853 5852 5852 5852 5852 5851
5701 5706 5712 5717 5723 5729 5733 5737 5742 5747 5752 5758 5763 5769 5775 5780 5784 5788 5793 5797 5800 5804 5808 5812 5816 5820 5822 5825 5828 5831 5833 5835 5836 5835 5836 5838 5842 5844 5844 5846 5847 5847 5847 5845 5845
5694 5698 5704 5709 5716 5721 5726 5730 5734 5738 5742 5749 5754 5760 5765 5771 5775 5779 5784 5788 5792 5796 5799 5803 5808 5813 5815 5818 5822 5823 5825 5826 5827 5829 5830 5831 5831 5838 5840 5839 5840 5840 5839 5839 5838
5682 5689 5695 5700 5707 5713 5718 5721 5725 5729 5731 5742 5745 5749 5756 5761 5766 5772 5774 5779 5783 5787 5790 5794 5798 5804 5809 5812 5813 5815 5816 5817 5820 5821 5823 5824 5812 5831 5835 5834 5834 5833 5831 5831 5830
5672 5679 5685 5690 5697 5703 5708 5711 5716 5720 5719 5728 5736 5742 5747 5751 5759 5763 5766 5769 5775 5778 5782 5788 5790 5793 5798 5802 5802 5806 5808 5809 5810 5812 5814 5814 5812 5816 5826 5828 5829 5827 5825 5823 5822
5661 5667 5674 5680 5686 5690 5697 5704 5705 5708 5707 5714 5724 5733 5737 5741 5746 5752 5756 5759 5764 5767 5772 5776 5780 5784 5788 5791 5793 5796 5797 5799 5800 5802 5804 5805 5808 5803 5813 5818 5819 5819 5816 5814 5813
5649 5655 5662 5668 5673 5679 5684 5688 5690 5691 5703 5707 5713 5720 5726 5731 5735 5740 5745 5750 5753 5756 5762 5766 5770 5774 5777 5780 5782 5785 5787 5788 5790 5790 5795 5795 5796 5795 5806 5801 5808 5806 5806 5804 5803
5636 5642 5650 5655 5661 5665 5670 5674 5672 5684 5691 5697 5702 5706 5714 5720 5725 5730 5733 5738 5743 5746 5750 5753 5757 5761 5768 5770 5772 5773 5776 5777 5774 5779 5784 5784 5782 5789 5797 5797 5793 5789 5793 5794 5790
5623 5628 5636 5639 5646 5651 5655 5654 5664 5677 5681 5687 5690 5693 5697 5703 5710 5716 5719 5726 5732 5737 5739 5740 5744 5750 5755 5756 5758 5762 5764 5768 5764 5767 5767 5774 5780 5781 5783 5785 5785 5783 5778 5779 5778
5610 5615 5621 5622 5629 5635 5637 5644 5658 5666 5669 5675 5678 5682 5687 5692 5696 5702 5706 5717 5720 5725 5725 5727 5730 5736 5739 5741 5744 5747 5753 5752 5752 5754 5754 5762 5765 5771 5773 5771 5771 5770 5769 5767 5766
5598 5603 5608 5609 5613 5616 5621 5636 5646 5651 5654 5659 5667 5671 5677 5680 5685 5690 5695 5703 5706 5711 5711 5714 5715 5722 5724 5729 5733 5734 5738 5739 5740 5740 5741 5746 5756 5763 5761 5760 5760 5758 5760 5759 5756
5587 5590 5594 5596 5598 5602 5614 5626 5631 5637 5641 5645 5650 5659 5664 5668 5671 5674 5684 5691 5694 5696 5698 5702 5700 5706 5711 5713 5716 5719 5725 5724 5722 5727 5728 5733 5742 5753 5752 5748 5750 5748 5746 5749 5745
5573 5577 5580 5582 5585 5594 5603 5610 5611 5620 5625 5631 5635 5643 5652 5652 5653 5662 5673 5680 5681 5684 5686 5688 5684 5690 5693 5700 5703 5704 5711 5714 5713 5713 5715 5718 5732 5743 5737 5738 5738 5738 5735 5732 5733
5558 5562 5565 5568 5578 5584 5589 5593 5596 5602 5608 5615 5622 5626 5630 5636 5640 5647 5658 5660 5665 5670 5672 5669 5667 5674 5681 5689 5687 5690 5695 5697 5696 5694 5705 5701 5718 5726 5724 5722 5726 5726 5722 5719 5717
5539 5547 5551 5555 5565 5569 5571 5577 5584 5588 5594 5598 5601 5609 5617 5619 5624 5632 5640 5644 5646 5654 5655 5653 5654 5659 5668 5672 5673 5675 5679 5680 5678 5686 5681 5697 5693 5710 5713 5713 5709 5707 5709 5704 5705
5520 5530 5536 5541 5547 5549 5553 5567 5571 5574 5579 5582 5585 5597 5596 5599 5609 5621 5624 5627 5625 5632 5635 5639 5640 5644 5647 5659 5658 5656 5662 5667 5669 5673 5669 5679 5679 5701 5701 5697 5696 5695 5690 5692 5691
5501 5508 5513 5521 5527 5531 5542 5552 5556 5554 5562 5567 5571 5573 5577 5589 5593 5598 5601 5607 5607 5614 5617 5621 5625 5629 5628 5644 5636 5629 5652 5658 5657 5661 5663 5659 5676 5682 5681 5683 5685 5681 5676 5677 5676